Flag for Denmark Weather past 2 weeks in Aalborg, Denmark

Now
59 °F

Partly sunny.


Feels Like: 57 °F
Forecast: 50 / 57 °F
Wind: 12 mph from Southwest

Location: Aalborg Airport

Current Time: Sep 23, 2014 at 5:11:44 PM

Latest Report: Sep 23, 2014 at 4:20 PM


Visibility: N/A

Pressure: 29.98 "Hg

Humidity: 63%

Dew point: 46 °F

Location of AalborgLocation

Historic Weather in Aalborg — Graph

°F

Aalborg temperature yesterday

Maximum temperature yesterday: 57 °F (at 12:20 PM)
Minimum temperature yesterday: 45 °F (at 9:20 PM)
Average temperature yesterday: 53 °F

Past Weeks' High & Low Weather Summary

 TemperatureHumidityPressure
High70 °F (Sep 11, 2:20 PM)100% (Sep 10, 5:20 AM)30.39 "Hg (Sep 10, 5:20 AM)
Low37 °F (Sep 23, 6:50 AM)49% (Sep 19, 5:50 PM)29.77 "Hg (Sep 8, 5:20 PM)
Average58 °F82%30.11 "Hg
* Reported Sep 8 3:20 PM — Sep 23 3:50 PM, Aalborg, Weather by CustomWeather, © 2014

Note: Actual official high and low records may vary slightly from our data, if they occured in-between our weather recording intervals... More about our weather records

Advertising

Aalborg weather history for previous 24 hours

 ConditionsComfort  
Time TempWeatherWind HumidityBarometerVisibility
3:50 PM
Sep 23
59 °FPartly sunny.13 mph63%29.98 "HgN/A
3:20 PM61 °FScattered clouds.12 mph63%29.98 "HgN/A
2:50 PM61 °FPassing clouds.13 mph59%29.98 "HgN/A
2:20 PM61 °FScattered clouds.9 mph59%29.98 "HgN/A
1:50 PM59 °FBroken clouds.9 mph68%30.01 "HgN/A
1:20 PM59 °FPartly sunny.10 mph68%30.01 "HgN/A
12:50 PM57 °FPartly sunny.10 mph67%30.01 "HgN/A
12:20 PM57 °FPartly sunny.12 mph67%30.01 "HgN/A
11:50 AM57 °FPartly sunny.10 mph67%30.01 "HgN/A
11:20 AM55 °FPartly sunny.10 mph67%30.01 "HgN/A
10:50 AM55 °FPartly sunny.12 mph59%30.04 "HgN/A
10:20 AM54 °FPartly sunny.9 mph67%30.04 "HgN/A
9:50 AM54 °FScattered clouds.6 mph63%30.04 "HgN/A
9:20 AM50 °FPassing clouds.5 mph76%30.04 "HgN/A
8:50 AM45 °FPassing clouds.5 mph93%30.04 "HgN/A
8:20 AM41 °FPassing clouds.2 mph93%30.04 "HgN/A
7:50 AM39 °FFog.2 mph93%30.04 "HgN/A
7:20 AM37 °FFog.3 mph93%30.04 "HgN/A
6:50 AM37 °FFog.2 mph100%30.04 "HgN/A
6:20 AM39 °FFog.1 mph93%30.04 "HgN/A
5:50 AM39 °FClear.1 mph93%30.04 "Hg10 mi
5:20 AM41 °FClear.No wind93%30.04 "Hg10 mi
4:50 AM39 °FFog.1 mph93%30.04 "HgN/A
4:20 AM39 °FFog.1 mph87%30.04 "HgN/A
3:50 AM39 °FFog.2 mph87%30.04 "HgN/A
3:20 AM41 °FClear.No wind87%30.07 "Hg10 mi
2:50 AM41 °FClear.1 mph87%30.07 "Hg10 mi
2:20 AM41 °FClear.1 mph87%30.07 "Hg10 mi
1:50 AM41 °FClear.1 mph87%30.07 "Hg10 mi
1:20 AM43 °FClear.2 mph87%30.07 "Hg10 mi
12:50 AM43 °FClear.2 mph87%30.07 "Hg10 mi
12:20 AM45 °FClear.1 mph81%30.07 "Hg10 mi
11:50 PM
Sep 22
45 °FClear.2 mph81%30.07 "Hg10 mi
11:20 PM50 °FClear.2 mph67%30.07 "Hg10 mi
10:50 PM48 °FClear.3 mph71%30.07 "Hg10 mi
10:20 PM48 °FClear.3 mph71%30.04 "Hg10 mi
9:50 PM46 °FClear.5 mph76%30.04 "Hg10 mi
9:20 PM45 °FClear.7 mph81%30.04 "Hg10 mi
8:50 PM46 °FClear.3 mph71%30.04 "Hg10 mi
8:20 PM50 °FClear.6 mph67%30.04 "Hg10 mi
7:50 PM52 °FScattered clouds.3 mph62%30.04 "HgN/A
7:20 PM54 °FScattered clouds.6 mph58%30.01 "HgN/A
6:50 PM55 °FPartly sunny.10 mph55%30.01 "HgN/A
6:20 PM55 °FPartly sunny.10 mph55%30.01 "HgN/A
5:50 PM55 °FScattered clouds.14 mph55%30.01 "HgN/A
5:20 PM55 °FPassing clouds.13 mph55%30.01 "HgN/A
Weather by CustomWeather, © 2014

See weather overviewHow to use our weather pages